Regional Weather Roundup
Issued by NWS

Home | Current Version | Previous Version | Text Only | Print | Product List | Glossary On
Versions: 1 2 3 4 5 6 7 8 9 10 11 12 13 14 15 16 17 18 19 20 21 22 23 24 25 26 27 28 29 30 31 32 33 34 35 36 37 38 39 40 41 42 43 44 45 46 47 48 49 50
000
ASUS43 KDTX 172210
RWRMI
MICHIGAN HOURLY REGIONAL WEATHER ROUNDUP
NATIONAL WEATHER SERVICE DETROIT/PONTIAC MI
600 PM EDT FRI APR 17 2015

NOTE: "FAIR" INDICATES FEW OR NO CLOUDS BELOW 12,000 FEET WITH NO
SIGNIFICANT WEATHER AND/OR OBSTRUCTION TO VISIBILITY.

MIZ047>049-052>055-059>063-066>070-074>076-081>083-172300-
SOUTHEAST LOWER MICHIGAN

CITY           SKY/WX    TMP DP  RH WIND       PRES   REMARKS
ADRIAN         CLOUDY    74  40  29 W9        30.00S
ALMA           CLOUDY    73  37  27 W12       29.98S
ANN ARBOR      PTSUNNY   74  39  28 NW7       29.98F
BAD AXE        SUNNY     70  37  29 W5        29.98F
CARO           SUNNY     73  42  31 W5        29.97S
DETROIT CITY   MOSUNNY   71  44  37 S12       29.99R
DETROIT        PTSUNNY   71  45  39 SE10      29.99F
FLINT          CLOUDY    76  40  27 W10       29.98S
GROSSE ILE     SUNNY     63  46  55 SE10      29.99S
HILLSDALE      PTSUNNY   73  40  30 W7        30.01S
HOWELL         PTSUNNY   74  35  24 W6        29.98S

CITY           SKY/WX    TMP DP  RH WIND       PRES   REMARKS
JACKSON        MOSUNNY   72  39  30 W5        29.99F
LAMBERTVILLE   MOSUNNY   77  37  24 W6        29.99F
LANSING        MOSUNNY   75  39  27 NW15      29.99F
LAPEER         FAIR      71  36  28 NW5       29.99S
MASON          PTSUNNY   75  37  25 W10G17    29.99S
MONROE         MOSUNNY   66  46  48 SE8       29.98S
PONTIAC        PTSUNNY   73  38  27 W10       29.98S
PORT HOPE        N/A     52  47  83 E16       29.97F
PORT HURON     MOSUNNY   68  45  42 E7        30.00S
TRI CITIES     MOSUNNY   76  39  26 W9        29.97S
TROY           MOSUNNY   76  36  23 W9        30.00S
SAGINAW HB     MOSUNNY   72  37  28 CALM      29.97S
$$
MIZ043>046-050>051-056>058-064>065-071>073-077>080-172300-
SOUTHWEST LOWER MICHIGAN

CITY           SKY/WX    TMP DP  RH WIND       PRES   REMARKS
BATTLE CREEK   SUNNY     75  39  27 NW13G18   30.01S
BENTON HARBOR  SUNNY     70  42  36 W5        30.02F
BIG RAPIDS     MOSUNNY   73  36  26 W8G17     29.98S
COLDWATER      PTSUNNY   74  40  29 NW8       30.00F
FREMONT        FAIR      73  32  22 NW12      30.00S
HOLLAND        SUNNY     70  43  37 W7        30.03S
GRAND RAPIDS   MOSUNNY   74  39  28 W15       30.01S
IONIA          FAIR      75  39  28 NW10      29.99S
KALAMAZOO      SUNNY     75  41  29 NW13G18   30.01S
LUDINGTON      MOSUNNY   58  41  53 CALM      30.02F
MARSHALL       MOSUNNY   75  39  27 W13G18    29.99S
MOUNT PLEASANT MOSUNNY   75  37  25 W5        29.97S
MUSKEGON       MOSUNNY   64  38  38 W5        30.02F
SOUTH HAVEN    SUNNY     67  47  48 W3        30.02F
$$
MIZ016>042-172300-
NORTHERN LOWER MICHIGAN

CITY           SKY/WX    TMP DP  RH WIND       PRES   REMARKS
ALPENA         SUNNY     61  39  44 E8        29.98S
BEAVER ISLAND  SUNNY     61  30  31 W6        30.00S
BELLAIRE       SUNNY     67  37  33 W7        30.00R
CADILLAC       MOSUNNY   70  39  31 SW8       29.98S
CHARLEVOIX     SUNNY     57  37  47 N3        30.04R
FRANKFORT      SUNNY     62  38  41 CALM      30.01S
GAYLORD        SUNNY     66  37  34 NW10      29.99S
GRAYLING       SUNNY     70  38  30 W10       29.99S
HARBOR SPRINGS SUNNY     41  35  79 SW6       30.00S
HOUGHTON LAKE  SUNNY     71  38  29 W5        29.98S
MANISTEE       SUNNY     63  43  48 NW8       30.02S
OSCODA         SUNNY     56  39  54 E8        29.98F
PELLSTON       SUNNY     65  21  18 NW12      29.99S
ROGERS CITY    SUNNY     61  34  36 NW8       29.99S
TRAVERSE CITY  MOSUNNY   60  39  45 NE8       29.99F
$$
MIZ007>008-015-172300-
EASTERN UPPER MICHIGAN

CITY           SKY/WX    TMP DP  RH WIND       PRES   REMARKS
KINROSS        SUNNY     57  27  30 NW10      29.99S
MACKINAC ISLAN SUNNY     59  31  34 W6        29.99S
NEWBERRY       SUNNY     59  25  27 NW3       29.99F
S. S. MARIE    SUNNY     56  23  27 NW7       29.99F
MUNISING         N/A     46  31  55 CALM      29.98F
$$
MIZ004>006-011>014-085-172300-
CENTRAL UPPER MICHIGAN

CITY           SKY/WX    TMP DP  RH WIND       PRES   REMARKS
MANISTIQUE     SUNNY     55  36  50 S5        29.98F
ESCANABA       SUNNY     55  34  44 S9        29.99R
MENOMINEE      SUNNY     61  39  44 S12G17    29.99F
SAWYER-GWINN   SUNNY     63  27  25 NE12      29.96F
$$
MIZ001>003-009>011-084-172300-
WESTERN UPPER MICHIGAN

CITY           SKY/WX    TMP DP  RH WIND       PRES   REMARKS
IRON MOUNTAIN  MOSUNNY   71  41  33 S12       29.93S
HOUGHTON       SUNNY     63  27  25 W7        29.96F
COPPER HARBOR    N/A     57  30  35 SW5       29.96F
IRONWOOD       SUNNY     66  34  30 NW8       29.95S
$$

ABBREVIATIONS USED IN REMARKS
   TC - TEMPERATURE IN CELSIUS
  WCI - WIND CHILL INDEX
   HX - HEAT INDEX
  VSB - VISIBILITY



USA.gov is the U.S. government's official web portal to all federal, state and local government web resources and services.